This is the latest recevied weather packets stored in our database for station/object KM4KBD. If no packets are shown the sender has not sent any weather packets the latest 10 day(s).
| Time | Temp. | Humidity | Pressure | Rain* | Wind** | Luminosity | Snow |
|---|---|---|---|---|---|---|---|
| 1777395588 | 19.44° C | 86% | 1022.9 hPa | 0 mm | - | 118 W/m² | - |
| 1777395284 | 19.44° C | 87% | 1022.8 hPa | 0 mm | - | 172 W/m² | - |
| 1777394982 | 19.44° C | 87% | 1022.6 hPa | 0 mm | - | 142 W/m² | - |
| 1777394678 | 19.44° C | 87% | 1022.8 hPa | 0 mm | - | 172 W/m² | - |
| 1777394375 | 18.89° C | 88% | 1022.6 hPa | 0 mm | - | 162 W/m² | - |
| 1777394071 | 18.89° C | 89% | 1022.7 hPa | 0 mm | - | 156 W/m² | - |
| 1777393767 | 18.89° C | 89% | 1022.6 hPa | 0 mm | - | 112 W/m² | - |
| 1777393466 | 18.89° C | 89% | 1022.6 hPa | 0 mm | - | 94 W/m² | - |
| 1777393163 | 18.89° C | 88% | 1022.4 hPa | 0 mm | - | 88 W/m² | - |
| 1777392860 | 18.89° C | 87% | 1022.7 hPa | 0 mm | - | 92 W/m² | - |
| 1777392555 | 18.89° C | 88% | 1022.7 hPa | 0 mm | - | 90 W/m² | - |
| 1777392251 | 18.89° C | 88% | 1022.6 hPa | 0 mm | - | 100 W/m² | - |
| 1777391946 | 18.89° C | 88% | 1022.8 hPa | 0 mm | - | 93 W/m² | - |
| 1777391641 | 18.89° C | 88% | 1022.9 hPa | 0 mm | - | 86 W/m² | - |
| 1777391337 | 18.89° C | 88% | 1022.9 hPa | 0 mm | - | 88 W/m² | - |
| 1777391035 | 18.89° C | 88% | 1022.8 hPa | 0 mm | - | 108 W/m² | - |
| 1777390730 | 18.89° C | 88% | 1022.7 hPa | 0 mm | - | 67 W/m² | - |
| 1777390427 | 18.33° C | 89% | 1022.9 hPa | 0 mm | - | 92 W/m² | - |
| 1777390123 | 18.33° C | 89% | 1022.6 hPa | 0 mm | - | 82 W/m² | - |
| 1777389820 | 18.33° C | 90% | 1022.5 hPa | 0 mm | - | 86 W/m² | - |
| 1777389517 | 18.33° C | 92% | 1022.5 hPa | 0 mm | - | 114 W/m² | - |
| 1777389214 | 17.78° C | 96% | 1022.6 hPa | 0 mm | - | 102 W/m² | - |
| 1777388912 | 17.22° C | 99% | 1022.4 hPa | 0 mm | - | 102 W/m² | - |
| 1777388608 | 16.67° C | 99% | 1022.3 hPa | 0 mm | - | 100 W/m² | - |
| 1777388305 | 16.67° C | 99% | 1022.5 hPa | 0 mm | - | 112 W/m² | - |
* Rain latest hour (hover to see other rain measurements)
** Current wind speed in m/s (hover to see current wind gust speed)